Date String (YYYY-MM-DD hh:mm:ss) UTC,Instrument flags,Ambient pressure (hPa),Sample flow (lpm),Bypass flow (lpm),Sample temperature (°C),Ambient temperature (°C),ASC tube jacket temperature (°C),LED temperature (°C),Box temperature (°C),Sample RH (%),Span deviation,Mass concentration (μg/m³),Mass concentration (μg/m³),Mass concentration (μg/m³)
DateTimeUTC,F1_M11,P_M11,Q1_M11,Q2_M11,T1_M11,T2_M11,T3_M11,T4_M11,T5_M11,U1_M11,ZSPAN_M11,X0_M11,X2_M11,X1_M11
2021-10-30 15:00:00,,0825.0,4.99,0.00,29.2,28.3,00.0,38.2,30.9,09.1,0000.0,0004.17,0000.82,0000.51
2021-10-30 15:01:00,,0825.1,5.00,0.00,29.2,28.3,00.0,38.2,31.0,09.0,0000.0,0004.20,0000.84,0000.52
2021-10-30 15:02:00,,0825.1,5.01,0.00,29.2,28.4,00.0,38.2,31.0,09.2,0000.0,0004.27,0000.88,0000.51
2021-10-30 15:03:00,,0825.1,5.01,0.00,29.2,28.4,00.0,38.2,31.0,09.3,0000.0,0004.67,0000.89,0000.51
2021-10-30 15:04:00,,0825.1,4.99,0.00,29.2,28.4,00.0,38.2,31.0,09.3,0000.0,0004.81,0000.97,0000.51
2021-10-30 15:05:00,,0825.1,5.00,0.00,29.2,28.4,00.0,38.2,31.0,09.2,0000.0,0003.73,0000.96,0000.52
2021-10-30 15:06:00,,0825.1,4.99,0.00,29.3,28.4,00.0,38.2,31.0,09.2,0000.0,0003.82,0000.96,0000.52
2021-10-30 15:07:00,,0825.1,5.00,0.00,29.3,28.5,00.0,38.2,31.1,09.3,0000.0,0003.81,0000.96,0000.52
2021-10-30 15:08:00,,0825.1,5.01,0.00,29.3,28.5,00.0,38.2,31.1,09.3,0000.0,0003.86,0000.98,0000.53
2021-10-30 15:09:00,,0825.1,5.00,0.00,29.3,28.5,00.0,38.2,31.1,09.2,0000.0,0003.89,0001.01,0000.54
2021-10-30 15:10:00,,0825.1,5.01,0.00,29.3,28.5,00.0,38.3,31.1,09.2,0000.0,0003.60,0001.01,0000.55
2021-10-30 15:11:00,,0825.1,4.98,0.00,29.3,28.6,00.0,38.3,31.1,09.2,0000.0,0003.75,0001.03,0000.55
2021-10-30 15:12:00,,0825.1,5.01,0.00,29.4,28.6,00.0,38.3,31.2,09.5,0000.0,0004.31,0001.06,0000.55
2021-10-30 15:13:00,,0825.1,5.00,0.00,29.4,28.6,00.0,38.3,31.2,09.5,0000.0,0004.58,0001.12,0000.56
2021-10-30 15:14:00,,0825.1,4.99,0.00,29.4,28.6,00.0,38.3,31.2,09.6,0000.0,0004.70,0001.18,0000.56
2021-10-30 15:15:00,,0825.1,5.01,0.00,29.4,28.6,00.0,38.3,31.2,09.5,0000.0,0004.42,0001.16,0000.57
2021-10-30 15:16:00,,0825.1,4.99,0.00,29.4,28.7,00.0,38.3,31.2,09.4,0000.0,0004.46,0001.17,0000.58
2021-10-30 15:17:00,,0825.2,5.01,0.00,29.5,28.7,00.0,38.4,31.3,09.5,0000.0,0004.65,0001.23,0000.59
2021-10-30 15:18:00,,0825.2,5.00,0.00,29.5,28.7,00.0,38.4,31.3,09.4,0000.0,0004.75,0001.28,0000.60
2021-10-30 15:19:00,,0825.2,4.98,0.00,29.5,28.8,00.0,38.4,31.3,09.4,0000.0,0004.75,0001.30,0000.61
2021-10-30 15:20:00,,0825.2,5.02,0.00,29.5,28.8,00.0,38.4,31.3,09.4,0000.0,0004.28,0001.29,0000.61
2021-10-30 15:21:00,,0825.2,4.98,0.00,29.6,28.8,00.0,38.4,31.4,09.1,0000.0,0004.02,0001.29,0000.61
2021-10-30 15:22:00,,0825.2,5.00,0.00,29.6,28.8,00.0,38.4,31.4,09.1,0000.0,0005.03,0001.27,0000.61
2021-10-30 15:23:00,,0825.2,5.01,0.00,29.6,28.8,00.0,38.5,31.4,09.3,0000.0,0004.84,0001.27,0000.60
2021-10-30 15:24:00,,0825.2,4.99,0.00,29.6,28.9,00.0,38.5,31.4,09.4,0000.0,0005.40,0001.26,0000.60
2021-10-30 15:25:00,,0825.2,5.01,0.00,29.7,28.9,00.0,38.5,31.4,09.4,0000.0,0005.11,0001.17,0000.60
2021-10-30 15:26:00,,0825.2,5.00,0.00,29.7,28.9,00.0,38.5,31.5,09.4,0000.0,0004.49,0001.14,0000.60
2021-10-30 15:27:00,,0825.2,4.99,0.00,29.7,28.9,00.0,38.6,31.5,09.4,0000.0,0004.57,0001.16,0000.59
2021-10-30 15:28:00,,0825.1,5.00,0.00,29.7,29.0,00.0,38.6,31.5,09.5,0000.0,0004.26,0001.09,0000.58
2021-10-30 15:29:00,,0825.2,5.01,0.00,29.7,29.0,00.0,38.6,31.5,09.5,0000.0,0004.27,0001.06,0000.57
2021-10-30 15:30:00,,0825.1,5.01,0.00,29.7,29.0,00.0,38.6,31.5,09.6,0000.0,0004.45,0001.03,0000.56
2021-10-30 15:31:00,,0825.2,4.98,0.00,29.8,29.0,00.0,38.6,31.5,09.5,0000.0,0004.86,0001.07,0000.56
2021-10-30 15:32:00,,0825.2,5.01,0.00,29.8,29.1,00.0,38.6,31.6,09.5,0000.0,0005.62,0001.14,0000.56
2021-10-30 15:33:00,,0825.2,5.01,0.00,29.8,29.1,00.0,38.7,31.6,09.6,0000.0,0007.12,0001.18,0000.57
2021-10-30 15:34:00,,0825.2,5.00,0.00,29.8,29.1,00.0,38.7,31.7,09.5,0000.0,0007.50,0001.20,0000.57
2021-10-30 15:35:00,,0825.2,4.99,0.00,29.9,29.1,00.0,38.7,31.7,09.6,0000.0,0007.08,0001.20,0000.57
2021-10-30 15:36:00,,0825.2,5.01,0.00,29.9,29.1,00.0,38.7,31.7,09.6,0000.0,0007.23,0001.21,0000.57
2021-10-30 15:37:00,,0825.2,5.00,0.00,29.9,29.2,00.0,38.8,31.7,09.6,0000.0,0007.44,0001.23,0000.58
2021-10-30 15:38:00,,0825.2,5.00,0.00,29.9,29.2,00.0,38.8,31.7,09.5,0000.0,0007.54,0001.22,0000.58
2021-10-30 15:39:00,,0825.2,5.01,0.00,29.9,29.2,00.0,38.8,31.7,09.4,0000.0,0007.89,0001.26,0000.58
2021-10-30 15:40:00,,0825.2,4.99,0.00,29.9,29.2,00.0,38.8,31.8,09.4,0000.0,0007.88,0001.26,0000.58
2021-10-30 15:41:00,,0825.2,4.99,0.00,30.0,29.2,00.0,38.8,31.8,09.4,0000.0,0008.08,0001.27,0000.57
2021-10-30 15:42:00,,0825.2,5.01,0.00,30.0,29.2,00.0,38.9,31.8,09.3,0000.0,0008.27,0001.23,0000.57
2021-10-30 15:43:00,,0825.2,5.00,0.00,30.0,29.3,00.0,38.9,31.8,09.0,0000.0,0007.75,0001.17,0000.58
2021-10-30 15:44:00,,0825.2,5.00,0.00,30.0,29.3,00.0,38.9,31.8,09.2,0000.0,0005.96,0001.17,0000.57
2021-10-30 15:45:00,,0825.2,5.00,0.00,30.0,29.3,00.0,38.9,31.9,09.3,0000.0,0005.32,0001.22,0000.56
2021-10-30 15:46:00,,0825.1,5.02,0.00,30.1,29.3,00.0,38.9,31.9,09.4,0000.0,0005.08,0001.23,0000.57
2021-10-30 15:47:00,,0825.2,5.00,0.00,30.1,29.3,00.0,39.0,31.9,09.4,0000.0,0004.93,0001.22,0000.57
2021-10-30 15:48:00,,0825.2,5.00,0.00,30.1,29.4,00.0,39.0,31.9,09.5,0000.0,0004.67,0001.17,0000.56
2021-10-30 15:49:00,,0825.2,5.00,0.00,30.1,29.4,00.0,39.0,32.0,09.5,0000.0,0005.37,0001.15,0000.56
2021-10-30 15:50:00,,0825.1,5.00,0.00,30.2,29.4,00.0,39.0,32.0,09.6,0000.0,0005.44,0001.13,0000.56
2021-10-30 15:51:00,,0825.1,5.00,0.00,30.2,29.4,00.0,39.0,32.0,09.6,0000.0,0005.79,0001.15,0000.58
2021-10-30 15:52:00,,0825.1,4.99,0.00,30.2,29.4,00.0,39.1,32.0,09.6,0000.0,0005.62,0001.17,0000.59
2021-10-30 15:53:00,,0825.1,5.00,0.00,30.2,29.5,00.0,39.1,32.0,09.5,0000.0,0005.08,0001.21,0000.61
2021-10-30 15:54:00,,0825.2,5.00,0.00,30.2,29.5,00.0,39.1,32.0,09.5,0000.0,0005.41,0001.29,0000.62
2021-10-30 15:55:00,,0825.2,5.01,0.00,30.2,29.5,00.0,39.1,32.1,09.6,0000.0,0005.85,0001.32,0000.63
2021-10-30 15:56:00,,0825.2,4.99,0.00,30.3,29.5,00.0,39.1,32.1,09.6,0000.0,0007.35,0001.31,0000.65
2021-10-30 15:57:00,,0825.2,4.99,0.00,30.3,29.5,00.0,39.2,32.1,09.6,0000.0,0007.91,0001.44,0000.68
2021-10-30 15:58:00,,0825.2,5.00,0.00,30.3,29.6,00.0,39.2,32.1,09.6,0000.0,0009.06,0001.56,0000.69
2021-10-30 15:59:00,,0825.2,5.00,0.00,30.3,29.6,00.0,39.2,32.1,09.7,0000.0,0009.40,0001.68,0000.71
